Plymouth, NH

6:45 PM EST on December 04, 2016 (GMT -0500)
Plymouth

Weather History for K1P1 - August, 2013

Change the Weather History Date:

Friday, August 30, 2013

  Actual Average (KLCI) Record (KLCI)
Temperature  
Mean Temperature 72 °F -  
Max Temperature 84 °F 76 °F 89 °F (2007)
Min Temperature 61 °F 55 °F 42 °F (1986)
Cooling Degree Days 8    
Growing Degree Days 22 (Base 50)    
Moisture  
Dew Point 63 °F    
Average Humidity 78    
Maximum Humidity 95    
Minimum Humidity 48    
Precipitation  
Precipitation 0.00 in - - ()
Sea Level Pressure  
Sea Level Pressure 29.88 in    
Wind  
Wind Speed 2 mph (WNW)    
Max Wind Speed 12 mph    
Max Gust Speed 16 mph    
Visibility 9 miles    
Events      
Averages and records for this station are not official NWS values.
T = Trace of Precipitation, MM = Missing Value Source: NWS Daily Summary

Daily Weather History Graph

Daily Weather History Graph

Search for Another Location

Airport or City:

Trip Planner

Search our weather history database for the weather conditions in past years. The results will help you decide how hot, cold, wet, or windy it might be!

Date:

Astronomy

Aug. 30, 2013 Rise Set
Actual Time 6:08 AM EDT 7:25 PM EDT
Civil Twilight 5:38 AM EDT 7:55 PM EDT
Nautical Twilight 5:02 AM EDT 8:31 PM EDT
Astronomical Twilight 4:24 AM EDT 9:08 PM EDT
Moon 12:38 AM EDT (8/30) 3:44 PM EDT (8/30)
Length of Visible Light 14h 16m
Length of Day
13h 17m
Waning Crescent, 29% of the Moon is Illuminated
Aug 30
Waning Crescent
Sep 5
New
Sep 12
First Quarter
Sep 19
Full
Sep 26
Last Quarter

Hourly Weather History & Observations

Time (EDT) Temp. Heat Index Dew Point Humidity Pressure Visibility Wind Dir Wind Speed Gust Speed Precip Events Conditions
12:15 AM 62.6 °F - 60.3 °F 92% 30.04 in 10.0 mi Calm Calm - N/A   Overcast
12:35 AM 62.6 °F - 60.3 °F 92% 30.04 in 10.0 mi Calm Calm - N/A   Overcast
12:55 AM 62.6 °F - 60.3 °F 92% 30.03 in 10.0 mi Calm Calm - N/A   Overcast
1:15 AM 62.6 °F - 60.3 °F 92% 30.02 in 10.0 mi Calm Calm - N/A   Overcast
1:55 AM 62.4 °F - 60.3 °F 93% 30.00 in 7.0 mi Calm Calm - N/A   Overcast
2:15 AM 62.2 °F - 60.3 °F 93% 30.00 in 10.0 mi Calm Calm - N/A   Overcast
2:35 AM 62.4 °F - 60.4 °F 93% 29.99 in 7.0 mi Calm Calm - N/A   Overcast
3:15 AM 62.2 °F - 60.4 °F 94% 29.97 in 7.0 mi Calm Calm - N/A   Overcast
3:35 AM 62.1 °F - 60.4 °F 94% 29.97 in 7.0 mi Calm Calm - N/A   Overcast
3:55 AM 62.2 °F - 60.4 °F 94% 29.97 in 10.0 mi Calm Calm - N/A   Overcast
4:15 AM 62.6 °F - 60.4 °F 93% 29.97 in 10.0 mi Calm Calm - N/A   Overcast
4:35 AM 62.6 °F - 60.6 °F 93% 29.96 in 10.0 mi Calm Calm - N/A   Overcast
4:55 AM 62.8 °F - 60.8 °F 93% 29.96 in 10.0 mi Calm Calm - N/A   Overcast
5:15 AM 62.2 °F - 60.3 °F 93% 29.95 in 7.0 mi Calm Calm - N/A   Overcast
5:35 AM 62.1 °F - 60.4 °F 94% 29.95 in 7.0 mi Calm Calm - N/A   Overcast
5:55 AM 62.1 °F - 60.6 °F 95% 29.95 in 5.0 mi Calm Calm - N/A   Overcast
6:15 AM 61.9 °F - 60.4 °F 95% 29.96 in 7.0 mi Calm Calm - N/A   Overcast
6:35 AM 62.2 °F - 60.6 °F 94% 29.96 in 7.0 mi Calm Calm - N/A   Overcast
6:55 AM 62.6 °F - 60.8 °F 94% 29.96 in 7.0 mi Calm Calm - N/A   Overcast
7:15 AM 62.8 °F - 61.0 °F 94% 29.96 in 7.0 mi Calm Calm - N/A   Overcast
7:35 AM 63.5 °F - 61.0 °F 91% 29.96 in 10.0 mi Calm Calm - N/A   Overcast
7:55 AM 64.6 °F - 60.8 °F 88% 29.96 in 10.0 mi Calm Calm - N/A   Overcast
8:15 AM 65.5 °F - 60.6 °F 84% 29.96 in 10.0 mi Calm Calm - N/A   Overcast
8:35 AM 66.9 °F - 61.5 °F 83% 29.95 in 10.0 mi Calm Calm - N/A   Overcast
8:55 AM 67.1 °F - 61.0 °F 81% 29.95 in 10.0 mi NW 5.8 mph - N/A   Mostly Cloudy
10:15 AM 71.1 °F - 61.5 °F 72% 29.93 in 10.0 mi NW 3.5 mph - N/A   Clear
10:35 AM 72.5 °F - 62.6 °F 71% 29.92 in 10.0 mi WNW 4.6 mph - N/A   Clear
10:55 AM 73.4 °F - 61.9 °F 67% 29.92 in 10.0 mi NW 9.2 mph - N/A   Clear
11:15 AM 74.3 °F - 62.8 °F 67% 29.92 in 10.0 mi West 6.9 mph - N/A   Clear
11:35 AM 75.2 °F - 63.0 °F 66% 29.91 in 10.0 mi West 8.1 mph - N/A   Clear
11:55 AM 76.5 °F - 62.8 °F 62% 29.89 in 10.0 mi WSW 4.6 mph - N/A   Clear
12:15 PM 77.2 °F - 63.1 °F 62% 29.89 in 10.0 mi West 11.5 mph 16.1 mph N/A   Clear
12:35 PM 77.9 °F - 62.1 °F 58% 29.88 in 10.0 mi West 8.1 mph - N/A   Clear
12:55 PM 78.8 °F - 63.3 °F 59% 29.87 in 10.0 mi West 8.1 mph - N/A   Clear
1:15 PM 79.7 °F - 63.1 °F 57% 29.86 in 10.0 mi West 6.9 mph - N/A   Clear
1:35 PM 80.1 °F 81.4 °F 62.4 °F 55% 29.86 in 10.0 mi WNW 8.1 mph - N/A   Clear
1:55 PM 81.0 °F 82.1 °F 62.4 °F 53% 29.85 in 10.0 mi WNW 6.9 mph - N/A   Clear
2:15 PM 81.5 °F 82.7 °F 62.8 °F 53% 29.84 in 10.0 mi West 8.1 mph - N/A   Clear
2:35 PM 82.2 °F 83.2 °F 62.6 °F 51% 29.83 in 10.0 mi WNW 6.9 mph - N/A   Clear
2:55 PM 82.8 °F 83.6 °F 62.4 °F 50% 29.83 in 10.0 mi NNW 6.9 mph - N/A   Clear
3:15 PM 82.9 °F 83.8 °F 62.6 °F 50% 29.82 in 10.0 mi NW 5.8 mph - N/A   Clear
3:35 PM 83.7 °F 84.3 °F 62.2 °F 48% 29.82 in 10.0 mi West 11.5 mph - N/A   Scattered Clouds
3:55 PM 82.9 °F 83.8 °F 62.6 °F 50% 29.81 in 10.0 mi WNW 5.8 mph - N/A   Scattered Clouds
4:15 PM 83.8 °F 84.7 °F 62.6 °F 49% 29.81 in 10.0 mi West 9.2 mph - N/A   Scattered Clouds
4:35 PM 84.0 °F 84.7 °F 62.2 °F 48% 29.80 in 10.0 mi WNW 5.8 mph - N/A   Scattered Clouds
4:55 PM 83.5 °F 84.5 °F 63.1 °F 50% 29.80 in 10.0 mi West 6.9 mph - N/A   Scattered Clouds
5:15 PM 83.5 °F 84.5 °F 62.8 °F 50% 29.79 in 10.0 mi West 4.6 mph - N/A   Mostly Cloudy
5:35 PM 82.2 °F 83.7 °F 63.9 °F 54% 29.79 in 10.0 mi WSW 3.5 mph - N/A   Scattered Clouds
5:55 PM 79.7 °F - 65.1 °F 61% 29.80 in 10.0 mi Calm Calm - N/A   Clear
6:15 PM 80.8 °F 82.6 °F 65.1 °F 59% 29.79 in 10.0 mi Calm Calm - N/A   Scattered Clouds
6:35 PM 80.8 °F 82.1 °F 63.3 °F 55% 29.79 in 10.0 mi Calm Calm - N/A   Scattered Clouds
6:55 PM 78.8 °F - 64.6 °F 62% 29.80 in 10.0 mi Calm Calm - N/A   Clear
7:15 PM 73.9 °F - 67.8 °F 81% 29.79 in 10.0 mi Calm Calm - N/A   Clear
7:35 PM 72.9 °F - 67.3 °F 83% 29.80 in 10.0 mi Calm Calm - N/A   Clear
7:55 PM 71.6 °F - 68.0 °F 88% 29.80 in 10.0 mi Calm Calm - N/A   Scattered Clouds
8:15 PM 69.8 °F - 66.7 °F 90% 29.81 in 10.0 mi Calm Calm - N/A   Scattered Clouds
8:35 PM 69.1 °F - 66.6 °F 92% 29.81 in 10.0 mi Calm Calm - N/A   Clear
8:55 PM 68.4 °F - 66.4 °F 93% 29.81 in 7.0 mi Calm Calm - N/A   Clear
9:15 PM 68.0 °F - 66.2 °F 94% 29.81 in 10.0 mi Calm Calm - N/A   Clear
9:35 PM 67.5 °F - 65.7 °F 94% 29.80 in 7.0 mi Calm Calm - N/A   Clear
9:55 PM 66.9 °F - 65.1 °F 94% 29.80 in 7.0 mi Calm Calm - N/A   Scattered Clouds
10:15 PM 67.1 °F - 65.3 °F 94% 29.80 in 7.0 mi Calm Calm - N/A   Scattered Clouds
10:35 PM 67.1 °F - 65.3 °F 94% 29.80 in 7.0 mi Calm Calm - N/A   Clear
10:55 PM 67.1 °F - 65.5 °F 95% 29.80 in 7.0 mi Calm Calm - N/A   Clear
11:15 PM 67.1 °F - 65.3 °F 94% 29.80 in 5.0 mi Calm Calm - N/A   Clear
11:35 PM 66.9 °F - 65.3 °F 95% 29.80 in 7.0 mi Calm Calm - N/A   Clear
11:55 PM 67.1 °F - 65.7 °F 95% 29.79 in 7.0 mi Calm Calm - N/A   Clear